TimeMST,TemperatureF,Dew PointF,Humidity,Sea Level PressureIn,VisibilityMPH,Wind Direction,Wind SpeedMPH,Gust SpeedMPH,PrecipitationIn,Events,Conditions,WindDirDegrees,DateUTC
12:15 AM,60.3,55.0,83,30.02,10.0,Calm,Calm,-,N/A,,Clear,0,2013-09-15 07:15:00
12:35 AM,59.4,54.9,85,30.02,10.0,Calm,Calm,-,N/A,,Clear,0,2013-09-15 07:35:00
12:55 AM,57.9,54.5,88,30.02,10.0,SE,3.5,-,N/A,,Clear,130,2013-09-15 07:55:00
1:15 AM,57.4,54.7,91,30.02,10.0,Calm,Calm,-,N/A,,Clear,0,2013-09-15 08:15:00
1:35 AM,56.7,54.9,94,30.02,10.0,Calm,Calm,-,N/A,,Clear,0,2013-09-15 08:35:00
1:55 AM,56.8,54.7,92,30.03,10.0,Calm,Calm,-,N/A,,Clear,0,2013-09-15 08:55:00
2:15 AM,57.6,54.9,91,30.03,10.0,Calm,Calm,-,N/A,,Clear,0,2013-09-15 09:15:00
2:35 AM,57.0,54.5,91,30.03,10.0,NNE,3.5,-,N/A,,Clear,30,2013-09-15 09:35:00
2:55 AM,55.8,53.6,92,30.04,10.0,Calm,Calm,-,N/A,,Clear,0,2013-09-15 09:55:00
3:15 AM,55.8,53.6,92,30.04,10.0,Calm,Calm,-,N/A,,Clear,0,2013-09-15 10:15:00
3:35 AM,55.0,53.2,94,30.04,10.0,SE,4.6,-,N/A,,Clear,130,2013-09-15 10:35:00
3:55 AM,54.5,53.4,96,30.04,10.0,SE,4.6,-,N/A,,Clear,130,2013-09-15 10:55:00
4:15 AM,54.1,53.2,97,30.05,10.0,Calm,Calm,-,N/A,,Clear,0,2013-09-15 11:15:00
4:35 AM,55.2,53.6,94,30.05,10.0,Calm,Calm,-,N/A,,Clear,0,2013-09-15 11:35:00
4:55 AM,55.2,53.1,92,30.05,10.0,Calm,Calm,-,N/A,,Clear,0,2013-09-15 11:55:00
5:15 AM,55.6,53.2,92,30.06,10.0,Calm,Calm,-,N/A,,Clear,0,2013-09-15 12:15:00
5:35 AM,55.9,53.2,91,30.06,10.0,Calm,Calm,-,N/A,,Clear,0,2013-09-15 12:35:00
5:55 AM,54.5,52.5,93,30.06,10.0,SE,3.5,-,N/A,,Clear,130,2013-09-15 12:55:00
6:15 AM,54.1,52.5,94,30.07,10.0,SE,4.6,-,N/A,,Clear,130,2013-09-15 13:15:00
6:35 AM,54.0,52.9,96,30.08,10.0,ESE,3.5,-,N/A,,Clear,120,2013-09-15 13:35:00
6:55 AM,55.0,53.8,96,30.08,10.0,Calm,Calm,-,N/A,,Clear,0,2013-09-15 13:55:00
7:15 AM,57.9,55.6,92,30.08,10.0,Calm,Calm,-,N/A,,Clear,0,2013-09-15 14:15:00
7:35 AM,60.6,56.8,87,30.08,10.0,Calm,Calm,-,N/A,,Clear,0,2013-09-15 14:35:00
7:55 AM,64.0,57.6,79,30.09,10.0,Calm,Calm,-,N/A,,Clear,0,2013-09-15 14:55:00
8:15 AM,67.6,56.8,68,30.09,10.0,SSE,3.5,-,N/A,,Clear,160,2013-09-15 15:15:00
8:35 AM,70.3,56.3,61,30.09,10.0,Calm,Calm,-,N/A,,Clear,0,2013-09-15 15:35:00
8:55 AM,72.0,55.4,56,30.10,10.0,NE,4.6,-,N/A,,Clear,40,2013-09-15 15:55:00
9:15 AM,72.7,54.7,53,30.11,10.0,ENE,3.5,-,N/A,,Clear,60,2013-09-15 16:15:00
9:35 AM,74.1,55.0,51,30.11,10.0,NE,3.5,-,N/A,,Scattered Clouds,50,2013-09-15 16:35:00
9:55 AM,75.2,55.2,50,30.11,10.0,Calm,Calm,-,N/A,,Scattered Clouds,0,2013-09-15 16:55:00
10:15 AM,76.1,54.7,47,30.11,10.0,NNE,4.6,-,N/A,,Scattered Clouds,30,2013-09-15 17:15:00
10:35 AM,78.3,54.3,43,30.11,10.0,ESE,5.8,-,N/A,,Scattered Clouds,110,2013-09-15 17:35:00
10:55 AM,79.2,53.1,40,30.11,10.0,SSE,4.6,-,N/A,,Clear,150,2013-09-15 17:55:00
11:15 AM,79.3,53.6,41,30.11,10.0,South,4.6,-,N/A,,Clear,180,2013-09-15 18:15:00
11:35 AM,79.7,52.5,39,30.11,10.0,Calm,Calm,-,N/A,,Clear,0,2013-09-15 18:35:00
11:55 AM,80.6,52.2,37,30.11,10.0,SE,5.8,-,N/A,,Scattered Clouds,130,2013-09-15 18:55:00
12:15 PM,81.5,51.6,35,30.11,10.0,ESE,3.5,-,N/A,,Clear,110,2013-09-15 19:15:00
12:35 PM,80.6,50.4,35,30.10,10.0,South,4.6,-,N/A,,Scattered Clouds,170,2013-09-15 19:35:00
12:55 PM,81.0,50.2,34,30.09,10.0,SSW,6.9,-,N/A,,Scattered Clouds,210,2013-09-15 19:55:00
1:15 PM,82.2,49.1,31,30.09,10.0,Calm,Calm,-,N/A,,Clear,0,2013-09-15 20:15:00
1:35 PM,82.9,50.0,32,30.08,10.0,Calm,Calm,-,N/A,,Clear,0,2013-09-15 20:35:00
1:55 PM,83.5,50.7,32,30.07,10.0,NE,3.5,-,N/A,,Clear,40,2013-09-15 20:55:00
2:15 PM,84.6,50.7,31,30.07,10.0,SW,4.6,-,N/A,,Clear,220,2013-09-15 21:15:00
2:35 PM,84.9,49.5,29,30.06,10.0,West,8.1,-,N/A,Thunderstorm,Clear,270,2013-09-15 21:35:00
2:55 PM,85.1,48.9,28,30.05,10.0,Calm,Calm,-,N/A,,Clear,0,2013-09-15 21:55:00
3:15 PM,85.8,48.7,28,30.05,10.0,WNW,5.8,-,N/A,,Clear,300,2013-09-15 22:15:00
3:35 PM,85.8,48.2,27,30.05,10.0,NNW,3.5,16.1,N/A,Thunderstorm,Thunderstorm,330,2013-09-15 22:35:00
3:55 PM,85.5,47.5,27,30.05,10.0,West,3.5,-,N/A,,Clear,270,2013-09-15 22:55:00
4:15 PM,85.3,48.0,27,30.05,10.0,West,4.6,-,N/A,,Clear,260,2013-09-15 23:15:00
4:35 PM,85.3,47.3,27,30.05,10.0,West,8.1,-,N/A,,Clear,260,2013-09-15 23:35:00
4:55 PM,84.9,46.2,26,30.05,10.0,WNW,8.1,-,N/A,,Clear,290,2013-09-15 23:55:00
5:15 PM,84.4,46.4,26,30.05,10.0,West,6.9,-,N/A,,Clear,260,2013-09-16 00:15:00
5:35 PM,83.8,48.4,29,30.05,10.0,WNW,6.9,-,N/A,,Clear,300,2013-09-16 00:35:00
5:55 PM,82.9,47.7,29,30.05,10.0,Calm,Calm,-,N/A,,Clear,0,2013-09-16 00:55:00
6:15 PM,81.3,49.8,33,30.06,10.0,Calm,Calm,-,N/A,,Clear,0,2013-09-16 01:15:00
6:35 PM,79.3,51.6,38,30.06,10.0,Calm,Calm,-,N/A,,Clear,0,2013-09-16 01:35:00
6:55 PM,74.3,54.1,49,30.07,10.0,SSE,10.4,-,N/A,,Clear,150,2013-09-16 01:55:00
7:15 PM,71.2,55.0,56,30.07,10.0,Calm,Calm,-,N/A,,Clear,0,2013-09-16 02:15:00
7:35 PM,68.7,55.9,64,30.08,10.0,SE,6.9,-,N/A,,Clear,130,2013-09-16 02:35:00
7:55 PM,67.5,56.3,67,30.08,10.0,SE,5.8,-,N/A,,Clear,140,2013-09-16 02:55:00
8:15 PM,65.7,56.5,72,30.09,10.0,Calm,Calm,-,N/A,,Clear,0,2013-09-16 03:15:00
8:35 PM,64.8,56.5,74,30.09,10.0,Calm,Calm,-,N/A,,Clear,0,2013-09-16 03:35:00
8:55 PM,64.2,56.5,76,30.09,10.0,Calm,Calm,-,N/A,,Clear,0,2013-09-16 03:55:00
9:15 PM,64.0,56.5,76,30.09,10.0,Calm,Calm,-,N/A,,Clear,0,2013-09-16 04:15:00
9:35 PM,64.6,56.3,74,30.11,10.0,Calm,Calm,-,N/A,,Clear,0,2013-09-16 04:35:00
9:55 PM,63.9,56.1,76,30.11,10.0,Calm,Calm,-,N/A,,Clear,0,2013-09-16 04:55:00
10:15 PM,63.1,56.1,78,30.11,10.0,Calm,Calm,-,N/A,,Clear,0,2013-09-16 05:15:00
10:35 PM,62.6,56.3,80,30.11,10.0,South,3.5,-,N/A,,Clear,170,2013-09-16 05:35:00
10:55 PM,62.1,56.3,81,30.11,10.0,Calm,Calm,-,N/A,,Clear,0,2013-09-16 05:55:00
11:15 PM,61.5,56.1,82,30.12,10.0,South,3.5,-,N/A,,Clear,180,2013-09-16 06:15:00
11:35 PM,61.0,55.8,83,30.12,10.0,SE,4.6,-,N/A,,Clear,140,2013-09-16 06:35:00
11:55 PM,60.6,55.6,83,30.12,10.0,SSE,4.6,-,N/A,,Clear,150,2013-09-16 06:55:00